AD8IZ-13 Weather Reports


Display with metric or nautical units.
time (UTC)temp
F
wind
direction
speed
MPH
gust
MPH
rain 1hr
in
rain 24hr
in
rain mn
in
humidity
%
barometer
mb
20260508125520 50 170 1.0 3.0 0.00 0.00 0.00 74 1014.0
20260508124519 50 179 0.0 2.0 0.00 0.00 0.00 74 1013.9
20260508123519 49 189 1.0 4.0 0.00 0.00 0.00 75 1014.0
20260508122520 48 204 1.0 4.0 0.00 0.00 0.00 75 1014.0
20260508121518 48 202 0.0 2.0 0.00 0.00 0.00 77 1014.1
20260508120520 46 214 1.0 5.0 0.00 0.00 0.00 79 1014.1
20260508115519 45 138 1.0 3.0 0.00 0.00 0.00 83 1014.1
20260508114519 44 110 1.0 3.0 0.00 0.00 0.00 89 1014.1
20260508113521 42 89 0.0 2.0 0.00 0.00 0.00 93 1014.0
20260508112517 41 67 0.0 2.0 0.00 0.00 0.00 94 1013.9
20260508111520 40 0.0 0.0 0.00 0.00 0.00 94 1013.9
20260508110520 40 29 1.0 2.0 0.00 0.00 0.00 94 1013.7
20260508105520 39 13 0.0 2.0 0.00 0.00 0.00 95 1013.7
20260508104518 39 28 2.0 3.0 0.00 0.00 0.00 94 1013.7
20260508103518 39 31 2.0 3.0 0.00 0.00 0.00 94 1013.5
20260508102518 39 20 2.0 3.0 0.00 0.00 0.00 94 1013.4
20260508101521 39 25 3.0 4.0 0.00 0.00 0.00 94 1013.4
20260508100519 39 28 3.0 3.0 0.00 0.00 0.00 94 1013.3
20260508095519 39 27 2.0 3.0 0.00 0.00 0.00 94 1013.4
20260508094519 39 27 3.0 3.0 0.00 0.00 0.00 93 1013.4
20260508093519 39 33 2.0 3.0 0.00 0.00 0.00 93 1013.4
20260508092520 40 31 2.0 4.0 0.00 0.00 0.00 93 1013.5
20260508091522 40 30 2.0 3.0 0.00 0.00 0.00 93 1013.5
20260508090519 40 16 0.0 3.0 0.00 0.00 0.00 92 1013.6
20260508085519 41 19 2.0 3.0 0.00 0.00 0.00 92 1013.5
20260508084519 41 24 2.0 3.0 0.00 0.00 0.00 91 1013.5
20260508083520 42 0.0 0.0 0.00 0.00 0.00 90 1013.4
20260508082519 42 0.0 0.0 0.00 0.00 0.00 90 1013.4
20260508081522 43 0.0 0.0 0.00 0.00 0.00 89 1013.4
20260508080520 44 0.0 0.0 0.00 0.00 0.00 88 1013.4
20260508075520 45 0.0 0.0 0.00 0.00 0.00 87 1013.4
20260508074518 45 93 0.0 1.0 0.00 0.00 0.00 87 1013.4
20260508073518 46 47 1.0 3.0 0.00 0.00 0.00 85 1013.5
20260508072518 46 94 1.0 3.0 0.00 0.00 0.00 85 1013.6
20260508071521 46 96 1.0 2.0 0.00 0.00 0.00 85 1013.7
20260508070521 47 115 1.0 2.0 0.00 0.00 0.00 83 1013.8
20260508065518 47 51 1.0 2.0 0.00 0.00 0.00 81 1013.8
20260508064519 47 80 0.0 0.0 0.00 0.00 0.00 78 1013.9
20260508063519 47 0.0 0.0 0.00 0.00 0.00 78 1013.9
20260508062519 46 12 1.0 2.0 0.00 0.00 0.00 79 1013.8
20260508061522 46 0.0 0.0 0.00 0.00 0.00 79 1013.8
20260508060519 46 29 1.0 2.0 0.00 0.00 0.00 79 1013.6
20260508055519 45 48 1.0 2.0 0.00 0.00 0.00 80 1013.4
20260508054520 45 110 0.0 2.0 0.00 0.00 0.00 81 1013.5
20260508053519 45 60 1.0 3.0 0.00 0.00 0.00 82 1013.6
20260508052517 44 43 1.0 3.0 0.00 0.00 0.00 85 1013.6
20260508051520 44 190 1.0 2.0 0.00 0.00 0.00 88 1013.7
20260508050523 44 0.0 0.0 0.00 0.00 0.00 89 1013.8
20260508045520 43 0.0 0.0 0.00 0.00 0.00 89 1013.8
20260508044517 43 96 1.0 2.0 0.00 0.00 0.00 90 1013.9
20260508043518 42 94 0.0 1.0 0.00 0.00 0.00 90 1013.9
20260508042521 42 0.0 0.0 0.00 0.00 0.00 89 1013.9
20260508041521 42 0.0 0.0 0.00 0.00 0.00 89 1013.8
20260508040521 42 0.0 0.0 0.00 0.00 0.00 89 1013.8
20260508035520 42 99 0.0 1.0 0.00 0.00 0.00 89 1013.7
20260508034518 42 0.0 0.0 0.00 0.00 0.00 89 1013.7
20260508033519 42 0.0 0.0 0.00 0.00 0.00 88 1013.7
20260508032522 42 0.0 0.0 0.00 0.00 0.00 88 1013.6
20260508031523 42 96 0.0 1.0 0.00 0.00 0.00 87 1013.7
20260508030519 42 0.0 0.0 0.00 0.00 0.00 86 1013.7
20260508025519 42 0.0 0.0 0.00 0.00 0.00 85 1013.7
20260508024519 43 0.0 0.0 0.00 0.00 0.00 83 1013.7
20260508023522 44 0.0 0.0 0.00 0.00 0.00 82 1013.6
20260508022520 44 50 0.0 2.0 0.00 0.00 0.00 81 1013.6
20260508021520 45 59 0.0 1.0 0.00 0.00 0.00 79 1013.7
20260508020521 45 55 0.0 2.0 0.00 0.00 0.00 78 1013.6
20260508015517 45 101 1.0 2.0 0.00 0.00 0.00 76 1013.6
20260508014519 46 51 1.0 2.0 0.00 0.00 0.00 73 1013.5
20260508013523 47 50 1.0 2.0 0.00 0.00 0.00 72 1013.4
20260508012521 47 129 1.0 2.0 0.00 0.00 0.00 70 1013.3
20260508011518 48 0.0 0.0 0.00 0.00 0.00 68 1013.2
20260508010520 49 0.0 0.0 0.00 0.00 0.00 67 1013.2
20260508005518 51 0.0 0.0 0.00 0.00 0.00 63 1013.1
20260508004518 52 0.0 0.0 0.00 0.00 0.00 60 1013.0
20260508003522 53 0.0 0.0 0.00 0.00 0.00 56 1012.9
20260508002519 54 342 0.0 2.0 0.00 0.00 0.00 53 1012.8
20260508001524 55 0.0 0.0 0.00 0.00 0.00 51 1012.7
20260508000519 56 345 0.0 2.0 0.00 0.00 0.00 49 1012.6
20260507235519 56 201 0.0 3.0 0.00 0.00 0.00 48 1012.6
20260507234520 56 316 0.0 2.0 0.00 0.00 0.00 48 1012.6
20260507233519 57 321 1.0 4.0 0.00 0.00 0.00 47 1012.5
20260507232520 59 296 1.0 4.0 0.00 0.00 0.00 46 1012.4
20260507231520 59 291 1.0 3.0 0.00 0.00 0.00 45 1012.4
20260507230517 58 287 1.0 6.0 0.00 0.00 0.00 46 1012.4
20260507225517 58 280 1.0 5.0 0.00 0.00 0.00 46 1012.5
20260507224524 58 291 1.0 5.0 0.00 0.00 0.00 46 1012.6
20260507223521 59 315 2.0 6.0 0.00 0.00 0.00 46 1012.5
20260507222518 59 313 1.0 5.0 0.00 0.00 0.00 46 1012.7
20260507221518 59 304 2.0 6.0 0.00 0.00 0.00 45 1012.6
20260507220518 58 313 2.0 4.0 0.00 0.00 0.00 46 1012.7
20260507215518 58 276 1.0 5.0 0.00 0.00 0.00 47 1012.5
20260507214520 58 298 2.0 6.0 0.00 0.00 0.00 46 1012.4
20260507213519 60 319 3.0 6.0 0.00 0.00 0.00 46 1012.3
20260507212519 60 327 3.0 7.0 0.00 0.00 0.00 46 1012.2
20260507211521 60 322 2.0 5.0 0.00 0.00 0.00 47 1012.2
20260507210519 60 335 3.0 8.0 0.00 0.00 0.00 47 1012.2
20260507205519 60 321 3.0 8.0 0.00 0.00 0.00 47 1012.0
20260507204520 60 334 2.0 6.0 0.00 0.00 0.00 48 1012.1
20260507203521 60 331 3.0 6.0 0.00 0.00 0.00 47 1011.9
20260507202520 59 325 3.0 6.0 0.00 0.00 0.00 48 1012.0
20260507201517 59 309 3.0 9.0 0.00 0.00 0.00 49 1012.2
20260507200518 60 297 1.0 5.0 0.00 0.00 0.00 49 1012.1
20260507195521 60 318 2.0 7.0 0.00 0.00 0.00 48 1012.1
20260507194522 60 322 3.0 6.0 0.00 0.00 0.00 49 1012.2
20260507193518 60 333 2.0 9.0 0.00 0.00 0.00 50 1012.3
20260507192518 60 314 2.0 7.0 0.00 0.00 0.00 50 1012.2
20260507191518 60 326 3.0 7.0 0.00 0.00 0.00 49 1012.4
20260507190519 59 334 3.0 8.0 0.00 0.00 0.00 51 1012.4
20260507185521 59 328 2.0 4.0 0.00 0.00 0.00 52 1012.4
20260507184519 59 310 3.0 6.0 0.00 0.00 0.00 52 1012.4
20260507183519 59 321 3.0 7.0 0.00 0.00 0.00 51 1012.5
20260507182519 59 304 2.0 6.0 0.00 0.00 0.00 53 1012.5
20260507181520 59 320 2.0 7.0 0.00 0.00 0.00 52 1012.4
20260507180520 58 260 2.0 6.0 0.00 0.00 0.00 53 1012.5
20260507175520 58 293 3.0 8.0 0.00 0.00 0.00 52 1012.6
20260507174522 58 312 2.0 7.0 0.00 0.00 0.00 53 1012.8
20260507173522 57 300 2.0 8.0 0.00 0.00 0.00 52 1013.0
20260507172520 57 316 3.0 6.0 0.00 0.00 0.00 50 1013.1
20260507171517 57 309 2.0 7.0 0.00 0.00 0.00 53 1013.2
20260507170518 58 313 3.0 8.0 0.00 0.00 0.00 51 1013.2
20260507165521 57 291 2.0 8.0 0.00 0.00 0.00 52 1013.3
20260507164519 57 311 2.0 5.0 0.00 0.00 0.00 50 1013.4
20260507163518 57 307 2.0 8.0 0.00 0.00 0.00 52 1013.4
20260507162518 56 314 3.0 7.0 0.00 0.00 0.00 53 1013.4
20260507161519 57 320 3.0 7.0 0.00 0.00 0.00 52 1013.5
20260507160521 56 290 2.0 8.0 0.00 0.00 0.00 55 1013.4
20260507155519 57 317 3.0 8.0 0.00 0.00 0.00 53 1013.4
20260507154519 56 287 2.0 6.0 0.00 0.00 0.00 54 1013.3
20260507153519 56 322 2.0 9.0 0.00 0.00 0.00 52 1013.2
20260507151519 55 338 2.0 6.0 0.00 0.00 0.00 55 1013.3
20260507150520 55 331 2.0 6.0 0.00 0.00 0.00 56 1013.4
20260507145520 54 334 2.0 5.0 0.00 0.00 0.00 55 1013.6
20260507144520 54 340 2.0 5.0 0.00 0.00 0.00 56 1013.6
20260507143520 54 320 1.0 5.0 0.00 0.00 0.00 59 1013.7
20260507142517 53 343 1.0 5.0 0.00 0.00 0.00 61 1013.8
20260507141526 52 344 2.0 4.0 0.00 0.00 0.00 61 1013.9
20260507140527 52 300 1.0 3.0 0.00 0.00 0.00 63 1014.0
20260507135528 51 175 1.0 3.0 0.00 0.00 0.00 65 1014.0
20260507134525 50 317 2.0 6.0 0.00 0.00 0.00 66 1014.1
20260507133528 49 309 2.0 4.0 0.00 0.00 0.00 68 1014.3
20260507132518 49 323 1.0 10.0 0.00 0.00 0.00 71 1014.3
20260507131528 48 353 1.0 4.0 0.00 0.00 0.00 72 1014.4
20260507130528 47 353 2.0 3.0 0.00 0.00 0.00 74 1014.5